User: anonymous   Login
Location: Morlupo
(42.1333°N, 12.5000°E)
Time: 05:19:39
(UTC+00:00)
Language:

Cosmos 2150 Rocket - Orbit

View from above orbital plane
View from above orbital plane
View from above satellite
View from above satellite

Ground track
Ground track

The orbit data is extracted from the following two-line orbital elements,

1 21419U 91041B   20333.58895172 +.00000169 +00000-0 +69108-4 0  9992
2 21419 074.0378 154.0253 0040228 134.5578 225.8871 14.33974244540864
Epoch (UTC): 28 November 2020 14:08:05
Eccentricity: 0.0040228
inclination: 74.0378°
perigee height: 749 km
apogee height: 807 km
right ascension of ascending node: 154.0253°
argument of perigee: 134.5578°
revolutions per day: 14.33974244
mean anomaly at epoch: 225.8871°
orbit number at epoch: 54086

The dashed part of the orbit path shows where the satellite is in the earth's shadow,  

DLR